This is the latest recevied weather packets stored in our database for station/object WE1C. If no packets are shown the sender has not sent any weather packets the latest 10 day(s).
| Time | Temp. | Humidity | Pressure | Rain* | Wind** | Luminosity | Snow |
|---|---|---|---|---|---|---|---|
| 1777560747 | 7.78° C | 99% | 1036 hPa | 2.29 mm | - | 167 W/m² | - |
| 1777560444 | 7.78° C | 99% | 1036.1 hPa | 1.27 mm | - | 154 W/m² | - |
| 1777560142 | 7.78° C | 99% | 1036.2 hPa | 1.27 mm | - | 166 W/m² | - |
| 1777559838 | 7.78° C | 99% | 1036.2 hPa | 1.27 mm | - | 112 W/m² | - |
| 1777559534 | 7.78° C | 99% | 1036.3 hPa | 0 mm | - | 95 W/m² | - |
| 1777559232 | 7.78° C | 99% | 1036.3 hPa | 1.78 mm | - | 83 W/m² | - |
| 1777558932 | 7.22° C | 99% | 1036.5 hPa | 1.78 mm | - | 121 W/m² | - |
| 1777558628 | 7.22° C | 99% | 1036.1 hPa | 2.29 mm | - | 101 W/m² | - |
| 1777558324 | 7.22° C | 99% | 1036.1 hPa | 2.29 mm | - | 75 W/m² | - |
| 1777558021 | 7.22° C | 99% | 1035.9 hPa | 2.29 mm | - | 65 W/m² | - |
| 1777557717 | 7.22° C | 99% | 1036.5 hPa | 3.05 mm | - | 47 W/m² | - |
| 1777557413 | 7.22° C | 99% | 1036.5 hPa | 1.78 mm | - | 66 W/m² | - |
| 1777557110 | 7.22° C | 99% | 1036.5 hPa | 0 mm | - | 55 W/m² | - |
| 1777556805 | 7.22° C | 99% | 1036.5 hPa | 0 mm | - | 56 W/m² | - |
| 1777556502 | 7.22° C | 99% | 1036.3 hPa | 0 mm | - | 65 W/m² | - |
| 1777556201 | 7.22° C | 99% | 1036.4 hPa | 0 mm | - | 64 W/m² | - |
| 1777555898 | 7.22° C | 99% | 1036.4 hPa | 1.27 mm | - | 72 W/m² | - |
| 1777555593 | 7.22° C | 99% | 1036.6 hPa | 1.27 mm | - | 69 W/m² | - |
| 1777555291 | 7.22° C | 99% | 1036.7 hPa | 0 mm | - | 83 W/m² | - |
| 1777554987 | 7.22° C | 99% | 1036.5 hPa | 0 mm | - | 132 W/m² | - |
| 1777554684 | 7.22° C | 99% | 1036.4 hPa | 0 mm | - | 130 W/m² | - |
| 1777554381 | 7.22° C | 99% | 1036.6 hPa | 0 mm | - | 87 W/m² | - |
| 1777554078 | 7.22° C | 99% | 1036.5 hPa | 0 mm | - | 75 W/m² | - |
| 1777553774 | 7.22° C | 99% | 1036.7 hPa | 1.27 mm | - | 58 W/m² | - |
| 1777553471 | 7.22° C | 99% | 1036.7 hPa | 1.27 mm | - | 97 W/m² | - |
* Rain latest hour (hover to see other rain measurements)
** Current wind speed in m/s (hover to see current wind gust speed)